Location: Limoges
(45.8500°N, 1.2500°E)
Time: 19:54:25
(UTC+01:00)

ISS - Visible Passes

Search period start: 29 January 2023 00:00
Search period end: 08 February 2023 00:00
Orbit: 413 x 419 km, 51.6° (Epoch: 29 January)

Date Brightness Start Highest point End Pass type
(mag) Time Alt. Az. Time Alt. Az. Time Alt. Az.
29 Jan -3.2 19:19:18 10° NW 19:22:33 43° NNE 19:23:28 33° ENE visible
29 Jan -0.3 20:56:04 10° WNW 20:56:22 12° WNW 20:56:22 12° WNW visible
30 Jan -2.9 18:30:38 10° NW 18:33:46 35° NNE 18:36:54 10° E visible
30 Jan -2.8 20:07:20 10° WNW 20:09:56 48° W 20:09:56 48° W visible
31 Jan -3.9 19:18:38 10° WNW 19:22:00 77° NNE 19:23:36 29° ESE visible
31 Jan -0.4 20:55:59 10° W 20:56:31 12° W 20:56:31 12° W visible
01 Feb -3.5 18:29:55 10° WNW 18:33:15 54° NNE 18:36:33 10° E visible
01 Feb -2.1 20:06:51 10° WNW 20:09:50 29° SW 20:10:17 28° SSW visible
02 Feb -2.8 19:17:55 10° WNW 19:21:11 47° SW 19:24:14 11° SE visible
03 Feb -3.6 18:29:04 10° WNW 18:32:26 76° SSW 18:35:47 10° SE visible
03 Feb -0.7 20:07:10 10° WSW 20:08:39 12° SW 20:10:08 10° SSW visible
04 Feb -1.1 19:17:29 10° W 19:20:02 20° SW 19:22:34 10° S visible
